www.pogodaiklimat.ru

Погода и климат >> Архив погоды >> Италия >> Термоли


ПОГОДА в Термоли

  • Прогноз погоды в Термоли
  • Монитор погоды в Термоли

АРХИВ ПОГОДЫ в Термоли

Время (UTC), дата Ветер
(напр.,м/с)
 
Видим.   Явления Облачность Т
(С)
Тd
(С)
f
(%)
Тe
(С)
Тes
(С)
Комфортность P
(гПа)
Po
(гПа)
Тmin
(С)
Tmax
(С)
R
(мм)
R24
(мм)
S
(см)
06 10.07 ЮВ 5 10 км гроза с градом 8/4 480 м
[Cb cap Ac trans]
+25.0 +23.3 90 +33 +34 очень
душно
1006.9 1001.8 +24.4 0.4
09 10.07 СВ 1 10 км {гроза} 8/3 750 м
[Cu hum Ac trans Cs]
+29.0 +26.4 86 +44 +53 опасность
перегрева
1007.1 1002.1
12 10.07 СВ 6 4000 м гроза с градом 10/6 480 м
[Cb cap Ac trans]
+27.0 +25.4 91 +39 +41 очень
душно
1005.0 1000.0 2
15 10.07 СЗ 7 2000 м гроза с градом 10/8 400 м
[Cb cap Ac trans]
+22.0 +20.7 92 +28 +28 душно 1007.9 1002.8
18 10.07 СЗ 10 10 км {гроза} 9/6 700 м
[Cu Sc Ac trans]
+24.0 +20.3 80 +30 +30 очень
душно
1009.1 1004.0 +34.0 37
06 11.07 СЗ 8 20 км 4/0
[Ci fib]
+24.0 +16.0 61 +27 +28 жарко 1012.7 1007.6 +23.4
09 11.07 С 7 20 км 4/0
[Ci fib]
+25.2 +15.5 55 +28 +33 жарко 1013.6 1008.5
12 11.07 С 5 20 км 3/0
[Ci fib]
+25.6 +12.1 43 +27 +37 жарко 1013.6 1008.5
15 11.07 С 2 20 км 8/0 2000 м
[Ac trans Ci fib]
+26.8 +12.8 42 +28 +34 жарко 1013.1 1008.1
18 11.07 СЗ 1 20 км 5/0 2000 м
[Ac trans Ci fib]
+25.4 +11.9 43 +27 +27 жарко 1012.2 1007.2 +27.6
06 12.07 ЮЗ 3 20 км 4/0 2000 м
[Ac trans Ci fib]
+21.4 +15.9 71 +25 +28 комфорт 1012.4 1007.3 +20.6
09 12.07 В 3 20 км 4/0 2000 м
[Ac trans Ci fib]
+26.4 +16.6 55 +30 +40 душно 1012.0 1006.9
12 12.07 СВ 2 20 км 6/3 800 м
[Cu hum Ac trans Ci fib]
+27.6 +20.9 67 +35 +45 очень
душно
1011.5 1006.5
15 12.07 В 2 20 км 6/3 800 м
[Cu hum Ac trans Ci fib]
+27.8 +19.9 62 +34 +38 очень
душно
1011.3 1006.3
18 12.07 ЮЗ 3 10 км в посл. час дождь 8/4 750 м
[Cu hum Ac trans Ci fib]
+24.4 +21.3 83 +31 +31 очень
душно
1011.7 1006.6 +28.8 0.6
06 13.07 ЮВ 3 20 км 3/3 800 м
[Cu med, cong Ac trans]
+22.6 +20.9 90 +30 +32 очень
душно
1008.3 1003.2 +21.4
09 13.07 ЮВ 3 20 км 4/4 700 м
[Cu med, cong Ac As]
+28.2 +22.2 70 +37 +45 очень
душно
1007.0 1002.0
12 13.07 С 17 10 км дождь 9/9 600 м
[Cb cap]
+23.0 +22.0 94 +31 +31 очень
душно
1006.9 1001.8 0.0
15 13.07 СЗ 7 10 км слаб. дождь 9/9 600 м
[Cb cap]
+24.8 +22.1 85 +32 +32 очень
душно
1008.4 1003.4
18 13.07 СЗ 6 20 км {ливн. осадки, дождь} 6/4 700 м
[Cu med, cong Ac As]
+23.6 +20.5 83 +29 +29 душно 1008.2 1003.1 +31.0 1
06 14.07 СЗ 8 20 км 8/5 600 м
[Cb calv Ac As]
+23.0 +20.5 86 +30 +30 очень
душно
1009.8 1004.7 +23.0
09 14.07 СЗ 7 20 км 5/4 700 м
[Cu med, cong Ac As]
+24.6 +14.7 54 +27 +29 жарко 1011.1 1006.0
12 14.07 С 5 20 км 4/4 700 м
[Cu med, cong]
+25.0 +12.9 47 +27 +33 жарко 1011.2 1006.1
15 14.07 С 4 20 км 3/3 700 м
[Cu med, cong]
+26.0 +14.5 49 +28 +32 жарко 1010.7 1005.6
18 14.07 С 2 20 км 3/3 700 м
[Cu med, cong]
+27.0 +17.5 56 +31 +31 душно 1009.7 1004.7 +27.0
06 15.07 ЮЗ 3 20 км 8/3 840 м
[Sc Ac trans]
+22.0 +16.9 73 +26 +28 душно 1008.0 1002.9 +21.2
09 15.07 СЗ 3 20 км 8/3 900 м
[Sc Ac trans Cs]
+27.0 +21.5 72 +34 +40 очень
душно
1007.4 1002.4
12 15.07 С 5 20 км 10/5 700 м
[Cu Sc Ac trans Cs]
+25.0 +20.0 74 +31 +33 очень
душно
1008.0 1002.9
15 15.07 С 3 20 км 10/4 700 м
[Cu Sc Ac trans Cs]
+25.0 +18.2 66 +29 +31 душно 1008.1 1003.0
18 15.07 С 3 20 км 10/5 750 м
[Cu Sc Ac trans]
+24.0 +19.5 76 +29 +29 душно 1008.2 1003.1 +27.0
06 16.07 СЗ 8 4000 м гроза, ливневой дождь 10/6 480 м
[Cb cap Ac trans]
+20.0 +18.8 93 +23 +23 комфорт 1008.3 1003.2 +20.0 0.2
09 16.07 СЗ 8 10 км в посл. час гроза {дождь} 9/5 600 м
[Cb calv Ac trans]
+23.8 +21.3 86 +30 +31 очень
душно
1008.9 1003.8
12 16.07 С 7 20 км {гроза, дождь} 4/3 750 м
[Cu hum Ac trans]
+24.8 +20.3 76 +31 +34 очень
душно
1009.9 1004.8 0.6
15 16.07 СЗ 8 20 км 1/0
[Cs]
+27.0 +15.4 49 +30 +31 душно 1010.0 1005.0
18 16.07 СЗ 9 20 км ясно +26.0 +16.6 56 +30 +30 душно 1010.1 1005.0 +27.2 0.6

 

Местоположение метеостанции Термоли (Италия): широта 42.00 долгота 15.00 высота над уровнем моря 44 м.

В архиве по умолчанию представлена погода в Термоли за последнюю неделю. Архивные данные за месяц целиком и за предыдущие месяцы, начиная с января 2011 года, Вы можете получить, выбрав интересующий диапазон дат из раскрывающегося списка и нажав кнопку "Ввод!".


*Определитесь, кто Вы:
робот инопланетянин человек

Внимание! Время в таблицах - всемирное. Для получения местного времени необходимо прибавить поправку, которая равна 1 ч.

Смотрите также архив погоды в соседних городах и на ближайших метеорологических станциях:

Погода в Кампобассо (Италия) (56 км)
Погода в Амендоле (Италия) (79 км)
Погода в Монте-Сант-Анджело (Италия) (85 км)
Погода во Вьесте (Италия) (98 км)
Погода в Тревико (Италия) (107 км)
Погода на Палагруже (Хорватия) (114 км)
Погода в Фучино (Италия) (115 км)
Погода в Казерте (Италия) (118 км)
Погода в Граццанизе (Италия) (131 км)
Погода в Неаполе (Италия) (141 км)

Пояснения к столбцам:

Ветер - указаны скорость ветра в м/с - средняя за 10 мин, порывы в срок и между сроками (в фигурных скобках) и направление, откуда дует ветер: С - северный, СВ - северо-восточный, В - восточный, ЮВ - юго-восточный, Ю - южный, ЮЗ - юго-западный, З - западный, СЗ - северо-западный.
Видимость - горизонтальная дальность видимости в метрах или километрах. При видимости от 1 до 10 км при отсутствии осадков обычно наблюдается дымка, при ухудшении видимости до 1 км и менее - туман. В сухую погоду видимость может ухудшаться дымом, пылью или мглою.
Явления - указаны атмосферные явления, наблюдавшиеся в срок или в последний час перед сроком; фигурными скобками обозначены явления, наблюдавшиеся между сроками (за 1-3 часа до срока); квадратными скобками обозначены град или гололедные отложения с указанием их диаметра в мм.
Облачность - указаны через наклонную черту общая и нижняя облачность в баллах и высота нижней границы облаков в метрах; квадратными скобками обозначены формы облаков: Ci - перистые, Cs - перисто-слоистые, Cc - перисто-кучевые, Ac - высококучевые, As - высокослоистые, Sc - слоисто-кучевые, Ns - слоисто-дождевые, Cu - кучевые, Cb - кучево-дождевые. Подробнее классификацию облаков см. в Атласе облаков (PDF).
T - Температура воздуха - температура, измеренная на высоте 2 м над землей.
Td - Температура точки росы - температура, при понижении до которой содержащийся в воздухе водяной пар достигнет насыщения.
f - Относительная влажность воздуха - влажноcть воздуха, измеренная на высоте 2 м над землей.
Te - Эффективная температура - температура, которую ощущает одетый по сезону человек в тени. Характеристика душности погоды. При расчете учитывается влияние влажности воздуха и скорости ветра на теплоощущения человека.
Tes - Эффективная температура на солнце - температура, которую ощущает человек, с поправкой на солнечный нагрев. Характеристика знойности погоды. Зависит от высоты солнца над горизонтом, облачности и скорости ветра. Ночью, в пасмурную погоду, а также при ветре 12 м/с и более поправка равна нулю.
P - Атмосферное давление - приведенное к уровню моря атмосферное давление.
Po - Атмосферное давление - измеренное на уровне метеостанции атмосферное давление.
Tmin - Минимальная температура - минимум температуры воздуха на высоте 2 м над землей.
Tmax - Максимальная температура - максимум температуры воздуха на высоте 2 м над землей.
R - Количество осадков - Количество выпавших осадков за период времени, мм. При наведении курсора мыши на число - период времени, за который выпало указанное количество осадков.
R24 - Количество осадков - Количество выпавших осадков за 24 часа, мм.
S - Снежный покров - Высота снежного покрова, см. При наведении курсора мыши на число - состояние снежного покрова и степень покрытия местности в баллах.